Location: Banksville Park
(38.5557°N, 75.1182°W)
Time: 14:55:07
(UTC+00:00)

Milstar 3 Cent rocket - Pass Details

Date: 19 September 2020
Orbit: 707 x 5145 km, 28.3° (Epoch: 27 October)

Event Time Altitude Azimuth Distance (km) Brightness Sun altitude
Rises 00:27:39 0° 232° (SW) 4,437 6.5 -17.2°
Reaches altitude 10° 00:31:57 10° 217° (SW) 2,904 5.2 -18.0°
Maximum altitude 00:36:28 20° 171° (S) 1,834 3.7 -18.8°
Enters shadow 00:37:17 19° 158° (SSE) 1,810 3.6 -19.0°
